Location: Unspecified
(40.7945°N, 0.0000°E)
Time: 19:42:46
(UTC+00:00)

Explorer 7 - Pass Details

Date: 23 June 2021
Orbit: 484 x 676 km, 50.3° (Epoch: 28 July)

Event Time Altitude Azimuth Distance (km) Brightness Sun altitude
Rises 00:07:07 0° 302° (WNW) 3,006 11.0 -25.8°
Reaches altitude 10° 00:09:43 10° 311° (NW) 2,073 10.2 -25.8°
Maximum altitude 00:14:05 34° 17° (NNE) 1,057 8.7 -25.7°
Drops below altitude 10° 00:18:14 10° 83° (E) 1,977 9.7 -25.7°
Sets 00:20:39 0° 93° (E) 2,845 10.5 -25.6°
